| time (UTC) | temp F | wind direction | speed MPH | gust MPH | rain 1hr in | rain 24hr in | rain mn in | humidity % | barometer mb |
| 20260504110504 | 71 | 280 | 13.0 | 0.0 | 0.00 | 0.00 | 0.00 | 46 | 1010.0 |
| 20260504100504 | 71 | 270 | 15.0 | 0.0 | 0.00 | 0.00 | 0.00 | 43 | 1010.0 |
| 20260504080504 | 66 | 250 | 16.0 | 0.0 | 0.00 | 0.00 | 0.00 | 55 | 1010.0 |
| 20260504050504 | 60 | 270 | 5.0 | 0.0 | 0.00 | 0.00 | 0.00 | 47 | 1009.0 |
| 20260504043503 | 57 | 270 | 5.0 | 0.0 | 0.00 | 0.00 | 0.00 | 54 | 1009.0 |
| 20260504040504 | 57 | 260 | 5.0 | 0.0 | 0.00 | 0.00 | 0.00 | 50 | 1008.0 |
| 20260504033504 | 55 | 260 | 5.0 | 0.0 | 0.00 | 0.00 | 0.00 | 54 | 1008.0 |
| 20260504030504 | 51 | 230 | 5.0 | 0.0 | 0.00 | 0.00 | 0.00 | 66 | 1009.0 |
| 20260504023503 | 50 | 310 | 8.0 | 0.0 | 0.00 | 0.00 | 0.00 | 76 | 1009.0 |
| 20260504020504 | 55 | 180 | 2.0 | 0.0 | 0.00 | 0.00 | 0.00 | 54 | 1008.0 |
| 20260504013503 | 53 | 160 | 3.0 | 0.0 | 0.00 | 0.00 | 0.00 | 62 | 1009.0 |
| 20260504010504 | 57 | 1 | 0.0 | 0.0 | 0.00 | 0.00 | 0.00 | 54 | 1009.0 |
| 20260504003503 | 55 | 1 | 0.0 | 0.0 | 0.00 | 0.00 | 0.00 | 62 | 1009.0 |
| 20260504000504 | 57 | 1 | 0.0 | 0.0 | 0.00 | 0.00 | 0.00 | 54 | 1009.0 |
| 20260503233504 | 55 | 310 | 1.0 | 0.0 | 0.00 | 0.00 | 0.00 | 62 | 1010.0 |
| 20260503230504 | 57 | 2 | 0.0 | 0.0 | 0.00 | 0.00 | 0.00 | 58 | 1010.0 |
| 20260503223503 | 57 | 160 | 3.0 | 0.0 | 0.00 | 0.00 | 0.00 | 58 | 1010.0 |
| 20260503220504 | 57 | 3 | 0.0 | 0.0 | 0.00 | 0.00 | 0.00 | 58 | 1011.0 |
| 20260503213503 | 60 | 20 | 3.0 | 0.0 | 0.00 | 0.00 | 0.00 | 51 | 1011.0 |
| 20260503210504 | 59 | 130 | 6.0 | 0.0 | 0.00 | 0.00 | 0.00 | 54 | 1011.0 |
| 20260503203503 | 60 | 130 | 3.0 | 0.0 | 0.00 | 0.00 | 0.00 | 51 | 1011.0 |
| 20260503200504 | 59 | 170 | 2.0 | 0.0 | 0.00 | 0.00 | 0.00 | 54 | 1011.0 |
| 20260503193503 | 62 | 160 | 1.0 | 0.0 | 0.00 | 0.00 | 0.00 | 45 | 1011.0 |
| 20260503190504 | 62 | 2 | 0.0 | 0.0 | 0.00 | 0.00 | 0.00 | 45 | 1011.0 |
| 20260503183503 | 64 | 1 | 0.0 | 0.0 | 0.00 | 0.00 | 0.00 | 42 | 1011.0 |
| 20260503180504 | 66 | 90 | 3.0 | 0.0 | 0.00 | 0.00 | 0.00 | 39 | 1010.0 |
| 20260503173504 | 66 | 80 | 6.0 | 0.0 | 0.00 | 0.00 | 0.00 | 42 | 1010.0 |
| 20260503170504 | 71 | 60 | 6.0 | 0.0 | 0.00 | 0.00 | 0.00 | 32 | 1010.0 |
| 20260503150503 | 82 | 240 | 9.0 | 0.0 | 0.00 | 0.00 | 0.00 | 18 | 1010.0 |
| 20260503130504 | 80 | 240 | 15.0 | 0.0 | 0.00 | 0.00 | 0.00 | 18 | 1011.0 |